Location: Carnoy
(49.9849°N, 2.7558°E)
Time: 16:35:10
(UTC+00:00)

Cosmos 2227 Rocket - Pass Details

Date: 24 January 2020
Orbit: 841 x 843 km, 71.0° (Epoch: 20 February)

Event Time Altitude Azimuth Distance (km) Brightness Sun altitude
Rises 19:36:03 0° 247° (WSW) 3,392 6.2 -29.8°
Reaches altitude 10° 19:38:52 10° 259° (W) 2,460 5.4 -30.2°
Maximum altitude 19:43:37 27° 317° (NW) 1,565 4.0 -31.0°
Enters shadow 19:46:18 19° 357° (N) 1,896 4.1 -31.4°
